Weather History for Lyndonville, VT

Change the Weather History Date:

Sunday, April 21, 2013

  Actual Average (K1V4) Record (K1V4)
Temperature  
Mean Temperature 34 °F 47 °F  
Max Temperature 43 °F 59 °F 88 °F (1941)
Min Temperature 25 °F 35 °F 8 °F (1908)
Degree Days  
Heating Degree Days 31 18  
Month to date heating degree days 474  
Since 1 July heating degree days 7274  
Cooling Degree Days 0 0  
Month to date cooling degree days 0  
Year to date cooling degree days 0  
Moisture  
Dew Point 13 °F    
Average Humidity 42    
Maximum Humidity 66    
Minimum Humidity 23    
Precipitation  
Precipitation 0.00 in 0.10 in 0.85 in (1905)
Month to date precipitation 1.97  
Year to date precipitation 9.16  
Sea Level Pressure  
Sea Level Pressure 30.52 in    
Wind  
Wind Speed 9 mph (NW)    
Max Wind Speed 16 mph    
Max Gust Speed 22 mph    
Visibility 10 miles    
Events Snow    
T = Trace of Precipitation, MM = Missing Value Source: NWS Daily Summary

Daily Weather History Graph

Daily Weather History Graph

Search for Another Location

Airport:

Trip Planner

Search our weather history database for the weather conditions in past years. The results will help you decide how hot, cold, wet, or windy it might be!

Date:

Astronomy

Apr. 21, 2013 Rise Set
Actual Time 5:53 AM EDT 7:40 PM EDT
Civil Twilight 5:22 AM EDT 8:11 PM EDT
Nautical Twilight 4:44 AM EDT 8:49 PM EDT
Astronomical Twilight 4:04 AM EDT 9:30 PM EDT
Moon 3:13 PM EDT (4/21) 3:24 AM EDT (4/21)
Length of Visible Light 14h 49m
Length of Day
13h 47m
Waxing Gibbous, 79% of the Moon is Illuminated
Apr 21
Waxing Gibbous
Apr 25
Full
May 2
Last Quarter
May 9
New
May 18
First Quarter

Hourly Weather History & Observations

Time (EDT) Temp. Windchill Dew Point Humidity Pressure Visibility Wind Dir Wind Speed Gust Speed Precip Events Conditions
12:15 AM 32.0 °F 22.1 °F 17.1 °F 54% 30.22 in 10.0 mi West 13.8 mph 20.7 mph N/A   Overcast
12:35 AM 32.0 °F 22.5 °F 17.2 °F 55% 30.22 in 10.0 mi West 12.7 mph 21.9 mph N/A   Overcast
12:55 AM 32.0 °F 24.2 °F 17.4 °F 55% 30.23 in 10.0 mi West 9.2 mph 19.6 mph N/A   Overcast
1:15 AM 32.0 °F 23.6 °F 17.6 °F 55% 30.24 in 10.0 mi West 10.4 mph 21.9 mph N/A   Overcast
1:35 AM 31.5 °F 23.5 °F 18.5 °F 59% 30.25 in 10.0 mi West 9.2 mph 20.7 mph N/A   Overcast
1:55 AM 31.1 °F 24.5 °F 19.9 °F 63% 30.25 in 10.0 mi West 6.9 mph - N/A   Overcast
2:15 AM 31.1 °F 21.4 °F 20.1 °F 64% 30.27 in 10.0 mi WNW 12.7 mph - N/A   Overcast
2:35 AM 30.6 °F 22.4 °F 19.0 °F 62% 30.27 in 10.0 mi West 9.2 mph - N/A Snow Light Snow
5:15 AM 27.7 °F 19.6 °F 16.5 °F 63% 30.36 in 10.0 mi NW 8.1 mph 19.6 mph N/A   Mostly Cloudy
5:35 AM 27.1 °F 20.7 °F 16.7 °F 65% 30.37 in 10.0 mi NW 5.8 mph - N/A   Scattered Clouds
5:55 AM 26.6 °F 19.1 °F 16.2 °F 65% 30.38 in 10.0 mi NW 6.9 mph 10.4 mph N/A   Clear
6:15 AM 26.2 °F 22.1 °F 15.8 °F 65% 30.40 in 10.0 mi NW 3.5 mph - N/A   Clear
6:35 AM 25.7 °F 21.5 °F 15.8 °F 66% 30.42 in 10.0 mi WNW 3.5 mph - N/A   Clear
6:55 AM 27.3 °F - 16.0 °F 62% 30.44 in 10.0 mi Calm Calm - N/A   Scattered Clouds
7:15 AM 28.4 °F 21.2 °F 15.6 °F 59% 30.45 in 10.0 mi WNW 6.9 mph - N/A   Mostly Cloudy
7:35 AM 28.4 °F 19.1 °F 15.3 °F 58% 30.47 in 10.0 mi WNW 10.4 mph - N/A   Scattered Clouds
7:55 AM 28.4 °F 18.5 °F 14.9 °F 57% 30.47 in 10.0 mi West 11.5 mph 16.1 mph N/A   Scattered Clouds
8:15 AM 28.9 °F 20.4 °F 14.7 °F 55% 30.49 in 10.0 mi NW 9.2 mph - N/A   Mostly Cloudy
8:35 AM 29.3 °F 20.8 °F 13.8 °F 53% 30.50 in 10.0 mi NW 9.2 mph - N/A   Mostly Cloudy
8:55 AM 30.6 °F 23.1 °F 14.4 °F 51% 30.50 in 10.0 mi WNW 8.1 mph - N/A   Overcast
9:15 AM 30.7 °F 22.6 °F 13.8 °F 50% 30.51 in 10.0 mi WNW 9.2 mph - N/A   Overcast
9:35 AM 30.9 °F 23.5 °F 14.0 °F 50% 30.52 in 10.0 mi West 8.1 mph - N/A   Overcast
9:55 AM 32.0 °F 23.6 °F 13.5 °F 46% 30.53 in 10.0 mi West 10.4 mph - N/A   Overcast
10:15 AM 32.2 °F 24.4 °F 13.5 °F 46% 30.54 in 10.0 mi WNW 9.2 mph - N/A   Mostly Cloudy
10:35 AM 33.1 °F 24.9 °F 12.7 °F 43% 30.55 in 10.0 mi WNW 10.4 mph 17.3 mph N/A   Mostly Cloudy
10:55 AM 34.9 °F 28.3 °F 12.7 °F 40% 30.55 in 10.0 mi WNW 8.1 mph - N/A   Mostly Cloudy
11:15 AM 34.9 °F 27.1 °F 10.8 °F 37% 30.55 in 10.0 mi NNW 10.4 mph 17.3 mph N/A   Scattered Clouds
11:35 AM 37.0 °F 31.6 °F 12.2 °F 36% 30.55 in 10.0 mi WSW 6.9 mph 16.1 mph N/A   Clear
11:55 AM 36.7 °F 28.4 °F 12.9 °F 38% 30.56 in 10.0 mi WNW 12.7 mph 17.3 mph N/A   Scattered Clouds
12:15 PM 38.3 °F 30.5 °F 13.3 °F 36% 30.56 in 10.0 mi NW 12.7 mph 19.6 mph N/A   Scattered Clouds
12:35 PM 37.9 °F 32.7 °F 10.9 °F 33% 30.56 in 10.0 mi NNE 6.9 mph 10.4 mph N/A   Clear
12:55 PM 39.0 °F 34.0 °F 11.7 °F 33% 30.56 in 10.0 mi NW 6.9 mph - N/A   Clear
1:15 PM 39.9 °F 33.4 °F 12.2 °F 32% 30.56 in 10.0 mi NW 10.4 mph - N/A   Clear
1:35 PM 40.5 °F 33.6 °F 11.8 °F 31% 30.56 in 10.0 mi NNW 11.5 mph 16.1 mph N/A   Clear
1:55 PM 41.4 °F 34.0 °F 10.6 °F 28% 30.56 in 10.0 mi North 13.8 mph 17.3 mph N/A   Clear
2:15 PM 41.7 °F 36.7 °F 11.5 °F 29% 30.57 in 10.0 mi NW 8.1 mph 16.1 mph N/A   Clear
2:35 PM 41.5 °F 35.0 °F 11.8 °F 30% 30.56 in 10.0 mi NNW 11.5 mph 17.3 mph N/A   Clear
2:55 PM 41.9 °F 36.3 °F 10.9 °F 28% 30.57 in 10.0 mi NW 9.2 mph - N/A   Clear
3:15 PM 42.4 °F 37.0 °F 9.9 °F 26% 30.57 in 10.0 mi NNW 9.2 mph - N/A   Clear
3:35 PM 42.8 °F 36.6 °F 9.9 °F 26% 30.57 in 10.0 mi NNW 11.5 mph 18.4 mph N/A   Clear
3:55 PM 43.2 °F 39.0 °F 10.0 °F 26% 30.57 in 10.0 mi North 6.9 mph 10.4 mph N/A   Clear
4:15 PM 43.7 °F 36.3 °F 8.1 °F 23% 30.57 in 10.0 mi North 16.1 mph 20.7 mph N/A   Clear
4:35 PM 43.7 °F 37.7 °F 8.6 °F 24% 30.57 in 10.0 mi North 11.5 mph 16.1 mph N/A   Clear
4:55 PM 43.7 °F 39.7 °F 8.8 °F 24% 30.57 in 10.0 mi NNW 6.9 mph - N/A   Clear
5:15 PM 43.5 °F 40.1 °F 8.4 °F 24% 30.58 in 10.0 mi NNW 5.8 mph - N/A   Clear
5:35 PM 42.8 °F 37.5 °F 8.1 °F 24% 30.58 in 10.0 mi North 9.2 mph - N/A   Clear
5:55 PM 42.4 °F 37.0 °F 8.4 °F 25% 30.59 in 10.0 mi WNW 9.2 mph - N/A   Clear
6:15 PM 42.1 °F 40.2 °F 9.3 °F 26% 30.59 in 10.0 mi NNW 3.5 mph - N/A   Clear
6:35 PM 41.4 °F 37.6 °F 9.0 °F 26% 30.60 in 10.0 mi NW 5.8 mph - N/A   Clear
6:55 PM 40.5 °F 36.5 °F 9.5 °F 28% 30.60 in 10.0 mi NNW 5.8 mph - N/A   Clear
7:15 PM 38.7 °F 32.9 °F 9.7 °F 30% 30.60 in 10.0 mi North 8.1 mph - N/A   Clear
7:35 PM 37.8 °F 32.5 °F 9.3 °F 31% 30.62 in 10.0 mi North 6.9 mph - N/A   Clear
7:55 PM 36.7 °F 32.9 °F 8.1 °F 31% 30.63 in 10.0 mi North 4.6 mph - N/A   Clear
8:15 PM 36.3 °F 30.8 °F 7.9 °F 31% 30.64 in 10.0 mi North 6.9 mph - N/A   Clear
8:35 PM 35.8 °F 30.1 °F 8.2 °F 32% 30.65 in 10.0 mi North 6.9 mph - N/A   Clear
8:55 PM 35.2 °F 30.3 °F 7.5 °F 32% 30.65 in 10.0 mi North 5.8 mph - N/A   Clear
9:15 PM 33.3 °F - 10.4 °F 39% 30.67 in 10.0 mi Calm Calm - N/A   Clear
9:35 PM 33.3 °F - 9.9 °F 38% 30.67 in 10.0 mi Calm Calm - N/A   Clear
9:55 PM 32.7 °F 29.6 °F 9.9 °F 39% 30.67 in 10.0 mi NE 3.5 mph - N/A   Clear
10:15 PM 33.3 °F 30.2 °F 9.3 °F 37% 30.67 in 10.0 mi North 3.5 mph - N/A   Clear
10:35 PM 32.0 °F - 10.9 °F 42% 30.67 in 10.0 mi Calm Calm - N/A   Clear
10:55 PM 28.4 °F - 14.4 °F 56% 30.68 in 10.0 mi Calm Calm - N/A   Clear
11:15 PM 28.8 °F - 13.8 °F 54% 30.68 in 10.0 mi Calm Calm - N/A   Clear
11:35 PM 30.2 °F - 13.5 °F 50% 30.68 in 10.0 mi Calm Calm - N/A   Clear
11:55 PM 28.4 °F - 13.6 °F 54% 30.67 in 10.0 mi Calm Calm - N/A   Clear